Wind_Speed
36 35 33 32 30 29 28 27 25 23 22 20 18 17 15 12 11 15 18 17 16 17 18 19 18 17 19 20 20 19 16 14 14 14 11 10 13 14 15 16 16 17 18 20 22 22 23 26 27 29 33 35 35 36 36 37 38 38 38 39 39 39 39 39 40 41 42 43 43 43 43 41 40 38 37 35 34 34 33 32 32 32 32 32 32 31
40 38 37 35 34 32 31 29 28 25 23 22 18 16 15 13 11 13 16 18 18 18 19 19 17 15 16 19 19 18 16 15 16 15 11 8 11 11 11 11 15 20 23 26 28 27 25 27 28 31 34 35 34 35 35 36 37 37 38 39 39 39 39 39 39 39 40 40 41 41 41 41 40 39 38 36 35 34 33 33 32 32 32 32 32 32
43 42 41 40 39 38 36 34 31 27 24 23 21 18 15 13 12 12 14 17 19 19 19 19 17 16 16 18 20 21 21 20 17 14 10 6 10 14 14 15 21 25 26 29 32 30 28 28 30 32 32 32 32 33 35 36 36 36 37 37 38 39 39 40 40 40 40 41 41 42 42 41 41 40 39 38 36 35 34 34 33 33 32 32 32 32
44 43 42 42 42 41 40 39 36 32 27 24 22 20 17 15 13 12 13 17 20 21 20 19 18 18 19 20 23 25 26 25 19 14 10 13 18 23 22 21 25 28 28 31 33 30 29 30 31 31 30 28 27 29 34 38 39 38 38 38 38 39 39 39 40 40 41 42 43 43 43 43 42 42 41 40 39 37 36 35 35 34 34 34 34 34
44 43 43 43 43 43 43 43 43 41 37 31 27 23 20 16 11 10 12 16 20 22 21 19 20 21 22 24 26 29 31 30 23 16 18 27 30 30 31 28 26 28 30 34 36 33 30 31 30 28 28 27 26 27 31 36 40 40 39 39 40 40 39 39 39 40 41 43 44 45 45 44 43 42 42 42 42 41 40 38 38 37 36 36 35 35
44 45 45 45 45 46 46 47 47 47 45 42 37 32 28 22 13 6 5 9 16 21 22 20 21 23 25 26 29 34 35 35 30 24 29 37 37 36 37 37 32 31 34 37 38 37 35 35 34 32 32 30 28 29 31 33 36 38 38 38 39 39 39 39 40 41 42 43 45 45 46 46 45 44 43 43 42 42 42 42 41 41 39 38 37 37
44 45 46 46 47 48 49 50 51 51 50 49 46 42 37 31 23 13 6 4 7 15 20 22 22 22 25 26 30 37 38 37 36 34 37 41 41 40 39 39 36 34 37 38 39 40 40 40 40 40 39 34 28 27 31 34 34 34 34 35 37 38 38 38 38 40 41 43 44 45 46 47 47 46 44 43 43 43 44 43 43 42 41 40 39 39
42 43 44 46 48 50 51 52 54 54 53 53 52 50 45 40 33 24 16 12 9 10 17 22 22 20 23 27 31 37 38 38 39 38 41 43 44 43 42 42 40 37 39 40 41 42 44 44 45 45 45 42 34 29 31 35 37 35 33 33 34 35 36 36 37 38 39 40 41 43 46 47 47 46 45 44 44 44 43 42 42 42 42 41 40 40
40 41 43 45 47 49 51 53 54 55 55 55 55 55 52 47 42 36 30 23 18 15 16 21 23 22 23 26 30 35 37 38 40 41 43 46 46 45 46 46 45 42 42 43 43 44 45 47 48 48 48 48 45 41 38 39 39 38 37 35 33 34 34 35 37 39 40 41 42 43 45 47 48 47 45 44 44 44 42 41 41 41 42 41 39 39
40 41 43 44 46 47 49 50 51 54 55 56 57 57 56 53 49 45 41 37 31 24 18 16 19 21 22 25 27 32 35 38 41 43 45 47 47 47 48 49 49 48 46 45 46 46 48 48 50 52 52 52 51 51 49 47 45 43 40 35 33 34 35 37 40 42 43 43 44 46 47 48 49 48 46 44 44 44 43 42 42 42 43 42 40 39
39 41 42 43 44 44 45 47 49 52 54 56 57 58 58 56 54 51 49 46 43 37 30 23 16 12 14 19 24 27 32 36 39 42 46 48 48 48 51 52 53 52 51 50 50 50 50 51 51 53 55 56 57 57 56 56 54 50 46 38 35 36 37 41 44 44 45 44 43 45 48 49 49 48 48 47 45 45 45 45 44 44 44 44 43 42
38 39 40 41 41 42 43 44 46 48 51 53 54 56 57 57 57 55 54 51 48 44 39 33 27 20 15 13 15 19 25 31 35 39 42 45 46 48 50 53 54 54 54 55 55 55 54 54 55 55 57 60 62 62 62 62 61 59 55 48 44 43 42 44 46 47 48 45 42 44 47 50 50 48 49 50 48 47 47 47 47 46 45 45 45 44
37 37 38 39 39 40 41 42 43 45 48 49 50 52 54 55 57 57 56 54 52 49 44 40 35 30 25 19 15 12 13 19 25 31 36 39 42 44 47 51 54 55 55 56 58 59 59 58 58 59 61 62 65 67 67 67 66 65 64 60 56 54 52 51 50 50 51 49 46 44 46 49 51 51 51 52 51 49 48 49 49 48 48 46 46 45
36 36 37 37 37 38 39 40 42 44 46 47 48 49 50 51 54 55 56 56 54 51 48 44 41 36 32 28 23 18 13 9 10 14 20 26 32 37 41 46 50 53 55 57 58 61 62 63 62 63 64 64 66 68 69 70 70 70 70 69 66 65 64 62 60 57 56 55 53 52 51 50 51 52 53 52 52 49 47 49 50 51 51 49 48 47
34 34 35 35 36 37 39 40 41 42 44 45 46 47 48 49 50 52 53 53 53 52 49 47 44 40 37 33 29 25 21 16 12 7 5 9 15 22 29 35 41 45 49 52 54 57 61 64 66 67 67 67 67 67 69 70 72 74 75 75 75 73 72 71 70 67 64 62 59 58 59 57 54 53 52 51 51 51 48 48 50 53 53 52 51 51
32 32 33 34 36 37 38 39 40 41 42 43 44 45 46 46 47 49 49 50 50 50 49 48 46 43 41 38 34 31 27 23 19 15 11 6 1 5 12 18 24 30 35 40 44 48 53 58 63 66 69 70 71 71 71 72 73 75 77 79 80 79 79 77 76 74 73 72 69 66 64 61 58 56 56 54 53 53 52 49 50 53 54 54 54 54
31 32 33 34 35 36 37 38 39 40 41 41 42 43 43 44 45 46 46 46 46 47 47 47 46 45 44 42 39 36 33 29 26 22 19 16 13 10 7 7 10 14 18 23 29 34 40 46 52 57 62 66 69 71 72 72 72 72 73 76 78 79 81 81 80 78 77 78 77 75 72 68 64 62 62 63 60 57 56 54 53 55 56 56 56 57
30 31 32 33 34 35 36 38 39 40 40 40 41 41 41 42 42 43 43 43 43 44 44 45 45 45 44 44 42 41 38 36 33 29 27 25 23 21 19 17 15 14 14 16 18 22 27 32 38 43 48 52 57 60 63 65 66 66 66 67 70 72 75 78 79 80 79 78 78 78 77 74 71 69 68 68 67 63 60 59 58 58 59 60 60 60
30 30 31 32 33 34 35 36 38 39 39 40 40 40 40 40 41 41 41 41 41 41 42 42 43 43 44 44 44 43 42 41 39 37 35 33 32 30 29 27 25 24 22 21 21 22 24 26 29 32 35 39 44 48 51 54 56 58 59 60 61 64 67 71 74 77 79 80 79 78 77 75 74 74 72 70 69 67 64 63 63 62 62 63 63 63
31 31 31 31 32 33 34 35 36 37 37 39 39 40 40 40 40 40 39 39 39 39 40 40 41 42 42 43 44 45 45 45 44 43 42 41 39 38 37 36 35 33 31 29 27 27 27 28 29 30 31 33 36 39 42 46 48 50 52 54 55 57 59 62 66 70 75 78 80 80 79 77 74 73 74 73 71 71 70 68 67 66 66 66 65 64
31 31 31 31 31 32 33 34 34 35 36 37 38 39 39 40 40 40 39 39 38 38 39 39 40 40 41 43 44 45 46 46 46 46 46 45 44 44 43 42 41 40 38 35 32 30 29 29 29 30 31 32 34 35 37 40 42 45 47 49 51 52 54 56 58 62 66 71 76 80 81 81 79 76 75 75 75 74 73 71 68 66 65 67 68 66
31 31 31 31 31 31 32 32 32 33 34 36 37 38 39 39 40 40 40 39 39 38 38 38 39 40 41 42 43 44 45 46 47 47 47 47 47 47 46 45 44 44 43 40 38 35 33 31 31 31 31 31 32 34 35 37 39 41 43 45 47 49 51 53 54 56 59 62 67 73 78 82 84 83 80 77 75 75 75 73 71 69 67 68 68 67
31 31 31 31 31 31 32 32 32 32 32 34 35 36 38 38 39 40 41 41 40 39 39 39 40 40 41 42 43 44 45 46 47 47 48 48 48 48 48 47 48 48 48 47 45 42 39 37 35 33 32 31 31 32 33 36 37 39 41 42 44 46 48 51 53 54 55 57 60 64 69 75 81 85 86 83 79 77 76 76 76 75 73 71 69 68
30 31 31 31 31 31 32 33 33 32 32 32 33 35 36 37 38 39 40 40 41 40 40 40 40 40 41 41 42 43 44 45 46 47 47 48 48 49 50 50 50 51 51 51 50 48 45 42 40 38 36 34 33 32 32 34 36 38 39 41 42 44 45 47 50 53 54 55 57 59 62 67 73 79 85 89 88 85 83 83 82 79 76 73 71 69
30 31 31 31 31 31 32 32 33 33 32 32 32 32 33 35 37 37 38 39 40 40 40 39 39 39 40 40 41 42 43 44 45 46 47 48 49 50 51 52 51 52 52 52 52 51 49 47 45 43 41 39 37 35 34 34 35 36 38 39 41 42 43 45 47 50 52 54 55 56 58 61 65 69 76 83 89 92 92 91 89 85 80 76 72 70
30 30 31 31 31 32 31 31 32 33 33 32 32 31 31 33 35 36 37 38 38 39 39 39 38 38 39 39 40 41 42 43 45 46 48 49 50 50 51 52 52 52 52 53 53 53 52 51 49 47 45 43 41 39 37 36 36 37 38 39 39 40 42 44 45 47 50 52 54 55 57 58 61 63 66 71 77 85 91 94 94 91 86 81 77 74
31 31 31 30 31 32 32 31 31 31 32 32 32 32 32 32 33 35 36 37 37 38 38 39 38 38 38 38 39 40 42 43 45 47 48 50 51 52 52 52 53 53 53 54 54 54 54 53 51 50 48 46 44 42 39 37 36 36 38 39 40 40 41 42 44 45 47 49 51 53 55 57 58 60 61 63 66 71 78 85 91 92 90 87 83 80
31 31 31 31 31 31 31 32 31 31 31 31 31 32 32 32 33 34 36 37 37 38 38 39 39 38 38 38 39 40 41 43 45 46 48 50 51 52 52 52 53 54 54 54 54 54 54 54 53 52 51 49 47 45 42 40 37 36 36 37 38 39 40 41 42 43 45 47 49 51 53 55 57 58 59 60 62 64 67 72 80 86 89 90 88 85
31 31 32 32 31 31 31 32 32 32 31 31 31 31 31 32 32 33 34 36 37 38 39 39 39 39 39 38 39 40 41 42 44 45 46 48 50 51 52 53 54 54 55 54 55 55 55 55 54 54 53 52 51 48 46 43 40 38 36 35 35 36 38 39 40 41 43 45 47 49 51 53 55 57 58 59 60 61 62 64 68 74 81 87 90 91
32 33 33 33 32 32 32 32 33 32 32 32 31 31 31 32 32 32 33 34 36 37 38 39 40 40 40 39 39 40 41 41 43 44 45 47 49 51 52 53 54 55 55 55 56 56 56 56 56 56 55 54 54 52 50 47 44 41 38 37 36 36 36 37 38 38 40 41 44 46 49 51 53 55 57 58 59 59 60 61 63 65 69 74 81 88
34 33 33 33 33 33 33 33 33 33 32 32 32 31 32 32 32 33 33 33 34 35 36 38 39 40 40 40 39 39 40 41 42 43 45 46 49 51 53 54 54 55 56 57 57 57 57 57 58 57 57 56 56 55 54 51 48 44 41 38 37 36 36 36 36 36 37 38 39 42 45 48 51 53 55 57 58 59 59 60 61 62 63 65 68 73
35 35 34 33 33 33 33 33 33 33 33 32 32 32 32 32 32 32 33 34 34 35 36 38 40 41 41 41 40 39 39 41 42 43 44 46 48 50 52 54 55 55 57 58 58 59 59 59 59 59 59 58 58 58 57 55 52 49 45 41 39 38 37 37 36 35 35 35 36 38 41 44 47 50 53 55 57 58 59 59 60 61 61 62 62 63
35 35 35 34 34 34 34 33 33 33 33 33 33 33 33 33 33 33 34 35 35 36 37 38 39 40 41 41 40 39 39 41 42 44 45 46 48 50 52 54 55 56 57 59 60 60 61 61 61 61 61 60 60 60 59 58 56 53 50 47 44 41 39 38 37 36 35 34 34 34 36 39 42 46 49 52 55 57 58 59 60 60 60 60 60 61
36 35 35 35 34 34 34 34 34 33 33 33 33 33 33 34 34 34 35 36 36 37 37 38 38 40 41 41 41 40 40 41 43 44 46 47 48 50 52 54 56 57 58 59 61 62 62 62 62 62 62 62 61 61 61 60 59 57 54 51 48 44 41 39 38 37 36 35 33 32 33 35 38 41 45 48 52 55 57 58 59 60 60 60 60 60
37 36 35 35 34 34 34 35 34 34 33 33 34 34 34 35 35 35 36 36 37 37 37 37 38 39 41 42 42 41 41 41 43 45 46 48 49 50 52 54 57 58 59 60 61 62 63 63 63 64 64 63 63 62 62 62 62 61 58 55 52 48 45 42 41 40 38 37 35 33 32 32 34 37 41 44 48 51 55 58 59 60 60 61 60 60
39 38 37 36 35 34 34 34 35 35 34 34 35 35 36 36 37 37 37 37 37 37 38 38 38 39 41 42 43 42 42 42 43 45 47 48 50 51 53 55 57 59 60 61 62 63 63 64 64 65 65 65 64 64 64 64 64 63 62 59 56 53 49 47 45 43 42 39 37 34 33 32 32 33 36 40 44 48 52 55 58 59 60 61 60 60
38 39 39 39 38 37 36 35 35 35 35 35 35 36 37 37 38 38 38 38 38 38 38 38 39 39 41 43 43 44 43 42 43 45 47 49 50 52 53 55 57 60 61 62 63 64 65 65 66 67 67 67 67 66 66 65 65 65 64 62 60 57 53 50 47 45 44 43 40 37 34 32 32 31 32 35 40 44 48 52 56 58 59 60 61 60
37 38 39 40 40 40 39 37 37 36 36 36 36 37 38 38 39 39 39 39 39 39 38 39 40 41 42 43 44 45 44 43 44 46 47 49 51 52 54 56 58 60 62 63 64 65 66 67 67 68 68 68 68 68 67 67 67 67 67 65 63 60 56 52 49 46 45 44 43 41 37 34 32 31 31 32 35 39 44 48 52 56 58 60 61 61
37 38 39 40 40 41 41 40 39 39 38 38 37 37 38 39 39 40 40 40 40 40 40 40 41 42 43 44 45 45 45 44 44 46 48 49 51 53 54 57 59 61 63 65 65 66 67 68 68 69 69 70 70 69 69 69 69 69 69 68 66 63 60 56 52 49 47 45 45 43 41 37 34 32 31 31 32 35 39 44 49 53 56 59 60 60
39 39 39 39 40 41 41 42 41 40 40 40 39 38 38 39 39 40 40 40 40 41 41 42 43 43 44 45 46 46 45 44 44 46 48 50 51 53 55 57 59 62 64 65 67 67 68 69 70 70 70 71 71 71 71 71 71 71 70 70 68 66 64 60 57 53 50 48 46 45 43 40 37 33 31 31 31 32 35 39 45 49 53 56 59 60
40 40 39 39 39 40 40 41 42 41 41 41 40 39 39 39 40 40 40 40 40 41 42 42 43 44 45 45 46 46 46 45 44 46 48 50 52 54 56 57 60 62 65 66 68 69 70 70 71 71 71 72 72 72 72 72 72 72 71 71 70 68 66 63 60 56 52 50 48 46 45 42 40 36 33 31 31 31 32 35 40 45 49 53 57 59
41 41 40 40 40 40 40 40 42 43 43 43 42 41 40 40 40 41 41 41 40 41 41 42 43 45 45 46 46 46 46 45 45 46 49 51 53 55 57 59 61 63 66 67 69 70 70 71 71 71 72 72 73 73 73 73 74 73 72 71 70 69 67 64 61 58 54 51 49 48 47 44 42 39 36 33 31 31 32 33 36 40 45 49 54 57
41 41 41 42 42 43 42 41 43 44 45 45 45 43 42 41 41 41 42 42 41 41 42 43 44 45 45 46 46 46 45 44 44 47 49 52 54 56 58 60 62 64 67 68 69 70 71 71 72 72 72 73 73 74 74 74 75 75 74 72 71 70 68 66 63 60 56 53 50 49 48 47 44 41 38 35 33 31 31 32 33 36 40 45 50 54
40 40 41 43 44 44 44 43 43 44 46 47 46 45 43 42 41 42 42 42 42 42 42 43 43 44 45 45 45 45 45 44 45 48 50 53 55 58 60 61 63 66 68 69 70 71 71 72 72 73 73 74 74 74 74 75 76 76 75 74 73 72 70 68 65 62 58 55 52 50 49 49 47 44 40 37 35 32 31 31 32 34 36 40 45 51
39 40 42 43 45 45 44 43 42 42 44 45 45 44 43 41 40 41 42 42 42 42 42 43 43 43 44 44 45 44 44 44 46 49 51 54 57 59 61 62 64 67 69 70 71 71 72 73 73 74 74 75 75 75 75 76 76 77 77 76 74 73 72 70 68 65 61 57 54 52 51 50 49 47 43 39 36 34 32 31 32 33 35 37 41 46
40 42 43 44 45 45 44 42 40 40 42 43 43 42 41 40 39 40 41 41 41 41 41 42 42 43 43 44 44 44 44 45 47 50 53 55 58 60 61 63 65 67 69 70 71 72 73 74 74 75 75 76 77 77 77 77 77 78 78 77 75 73 73 72 70 67 64 60 56 53 52 51 50 49 46 42 38 35 34 32 31 32 34 36 38 41
42 43 43 43 43 43 42 41 41 40 40 40 40 40 39 38 38 39 40 40 41 41 41 41 42 42 42 43 43 44 45 47 49 52 54 57 59 61 62 64 66 68 70 71 72 73 74 75 75 76 77 78 78 78 78 78 78 79 78 78 76 74 73 72 70 68 65 62 58 55 53 52 51 50 48 44 40 36 34 33 32 31 32 35 37 39
42 42 41 41 41 41 41 41 41 41 40 39 39 39 38 37 37 39 39 39 40 41 41 41 41 41 41 42 43 44 46 48 51 54 56 58 60 62 64 66 68 70 71 73 74 75 76 76 77 77 78 79 80 80 79 80 80 80 79 78 76 74 73 72 71 69 66 63 59 56 54 53 52 51 50 46 42 37 35 34 33 32 32 33 36 37
39 39 39 40 40 40 40 41 41 41 39 38 37 37 37 36 36 37 38 38 39 40 40 40 40 41 41 42 43 44 47 50 52 55 57 59 61 63 65 68 70 72 73 74 75 77 77 78 78 78 79 80 80 81 81 81 81 81 80 78 75 74 73 72 71 70 67 64 61 57 55 54 53 52 51 48 44 39 35 34 33 33 32 33 34 36
37 37 38 39 40 40 40 40 40 40 39 38 37 36 35 34 35 36 36 37 38 39 39 39 40 40 41 41 43 46 48 51 53 56 58 60 63 65 67 70 71 73 74 75 76 77 78 78 79 79 80 80 81 82 82 82 82 82 80 78 76 74 73 73 72 70 68 65 62 59 56 55 54 53 52 49 45 40 36 33 33 34 34 33 33 35
36 37 37 39 40 40 40 39 39 39 38 37 37 35 34 34 34 35 35 35 36 37 37 38 38 39 40 41 44 47 50 52 55 57 59 61 64 66 68 70 72 73 75 76 77 78 79 79 80 80 81 81 81 82 83 83 83 82 81 78 76 75 74 73 72 71 69 66 63 60 58 56 56 55 53 51 47 42 38 34 32 32 34 34 33 33
Wind_Direction
50 47 43 39 35 30 25 20 13 3 351 342 332 318 307 289 263 251 250 249 241 232 227 224 222 219 218 217 217 220 220 214 206 202 206 228 250 263 270 269 269 270 270 270 270 272 272 265 256 253 253 254 255 256 257 258 258 259 260 259 259 258 259 260 261 263 264 266 266 267 267 266 266 265 262 260 259 258 258 258 258 258 258 258 258 257
53 51 48 45 41 36 31 27 21 12 360 349 338 324 312 298 274 251 242 241 237 232 227 221 212 207 208 208 204 200 196 193 195 197 198 223 253 273 287 282 275 272 271 272 271 271 273 269 261 257 257 257 259 261 263 263 263 263 264 264 263 262 261 261 261 262 262 264 265 265 265 265 264 263 261 259 257 256 255 255 255 256 257 257 258 258
52 51 49 47 45 42 39 35 30 23 11 357 347 335 322 308 286 260 240 232 229 226 223 216 204 197 198 198 193 185 182 182 182 180 180 215 250 260 263 257 257 258 261 265 265 267 268 264 260 259 260 259 260 264 266 265 262 260 262 263 264 265 264 264 263 263 263 263 263 264 264 264 263 262 259 258 256 255 255 255 254 255 255 256 257 257
51 50 50 49 48 46 45 42 39 34 26 12 1 350 337 322 298 271 244 228 223 221 219 210 196 191 191 189 186 181 180 180 174 165 185 227 241 241 240 242 249 249 250 256 256 257 259 258 259 262 263 259 258 263 264 262 259 257 259 262 263 266 266 266 266 266 266 266 265 264 263 263 262 261 259 257 256 255 254 254 253 253 254 255 256 256
52 51 50 50 49 48 47 45 43 40 36 30 22 14 4 349 323 285 253 230 222 218 215 205 193 190 190 185 182 179 177 174 166 167 203 223 230 230 227 228 238 239 238 246 247 246 247 249 252 253 253 254 255 261 263 259 258 258 261 263 265 267 268 269 271 271 270 269 268 266 264 263 262 260 260 259 258 256 255 254 252 252 253 254 255 255
53 52 51 50 49 48 48 47 45 43 40 37 34 30 26 18 8 342 260 231 221 215 210 201 192 190 190 185 180 177 175 173 170 180 205 216 222 226 227 228 235 238 236 241 245 244 243 246 249 246 245 251 256 263 267 262 258 258 260 262 264 266 268 270 272 271 270 269 268 267 265 263 262 260 261 262 260 258 257 257 256 255 255 255 256 255
52 51 51 50 50 49 48 48 47 45 43 42 40 38 36 33 32 40 74 134 198 206 203 198 192 189 188 185 182 179 179 181 183 193 205 211 216 221 225 228 233 240 240 242 243 242 242 244 248 247 243 245 253 262 268 265 259 257 257 257 259 261 264 268 270 270 269 267 266 265 264 263 262 262 262 262 261 260 260 261 261 261 258 258 258 257
50 50 49 48 49 49 49 48 48 47 45 44 44 43 42 42 43 48 65 92 117 158 182 191 188 180 179 183 185 184 185 189 192 198 206 212 216 218 221 226 230 237 241 242 242 241 241 242 246 248 244 241 246 255 262 263 259 257 259 259 258 259 261 264 268 271 272 271 269 267 265 263 262 261 261 260 259 261 262 263 264 263 261 259 258 255
49 48 47 46 46 46 47 47 48 48 46 46 46 46 46 47 50 53 60 74 91 119 156 179 181 173 171 178 186 190 193 197 199 202 207 213 218 219 221 226 231 237 240 243 243 242 243 243 244 246 245 242 244 248 253 257 257 257 259 262 264 264 265 267 269 271 273 273 273 271 268 265 262 260 260 259 259 260 262 262 263 263 261 258 255 253
48 47 46 45 44 43 44 45 47 49 49 48 47 48 48 49 52 56 62 69 76 86 109 145 169 176 176 178 185 193 200 205 206 207 208 213 219 222 224 227 232 238 241 243 243 243 243 243 243 244 245 245 244 246 249 253 255 256 256 259 263 264 265 266 265 265 267 268 269 269 268 266 264 262 261 261 261 261 260 260 260 261 260 256 253 251
46 45 45 44 43 42 42 43 45 47 48 48 48 48 49 49 51 54 59 65 71 75 82 93 112 142 168 180 187 195 203 209 211 210 210 213 219 224 227 229 232 238 243 244 244 245 244 243 244 245 247 247 247 247 249 251 253 255 255 254 254 255 254 255 258 260 260 262 263 264 265 265 265 263 261 261 261 261 260 259 258 258 257 255 252 251
46 45 44 44 43 43 42 42 43 45 47 48 48 48 48 49 50 52 55 59 64 69 74 80 86 94 112 144 173 190 202 210 215 216 216 220 225 229 231 233 236 240 244 245 245 247 247 247 247 247 249 250 250 250 251 251 253 254 256 253 250 249 248 250 253 255 256 257 259 261 264 265 265 262 259 258 260 261 260 259 258 256 255 254 253 252
47 46 45 44 43 43 43 43 43 45 46 47 47 48 48 48 49 50 52 54 57 59 63 67 72 77 83 93 110 140 175 199 213 220 225 230 235 238 238 239 242 245 248 249 248 248 249 250 251 251 251 253 254 254 254 253 253 254 256 257 255 252 251 250 251 252 254 254 253 255 261 263 263 261 258 257 259 260 259 259 258 257 255 253 252 252
45 45 44 43 43 43 43 42 42 43 45 46 46 47 47 47 48 49 50 51 53 54 55 57 59 62 66 70 77 84 98 130 178 207 222 231 237 241 244 245 247 250 252 253 253 252 251 251 253 253 254 255 257 257 257 256 255 255 258 260 260 259 256 255 253 251 252 253 250 251 253 255 258 258 259 259 260 260 258 257 256 257 256 254 252 250
43 42 42 41 41 41 41 40 40 40 41 42 43 45 45 45 46 47 48 49 50 51 52 53 54 55 56 58 61 64 68 74 84 105 168 216 231 239 244 247 250 253 255 257 258 258 256 255 256 256 257 257 259 259 260 259 258 258 259 260 262 261 260 259 257 254 253 252 252 252 252 252 253 254 256 258 257 257 256 255 255 256 257 256 254 251
41 39 38 38 38 38 38 38 38 38 38 39 40 42 42 43 43 44 44 45 46 47 48 49 50 50 50 51 52 53 54 56 58 59 59 58 11 253 251 252 253 255 256 258 259 260 260 259 258 258 259 259 260 260 261 260 260 260 260 260 261 260 260 259 258 256 255 254 254 253 252 253 253 252 253 252 250 250 252 252 253 253 253 255 255 254
37 36 35 35 35 35 35 36 36 36 36 36 37 38 39 40 41 42 41 41 41 42 43 44 45 45 45 45 46 46 46 45 45 45 44 41 35 23 358 320 291 277 270 266 264 263 262 260 259 258 258 258 258 259 260 260 260 260 260 260 260 260 259 258 257 256 254 254 254 254 253 253 252 251 252 251 249 249 249 249 250 249 249 250 253 254
33 32 31 32 32 32 32 33 34 34 33 32 34 35 35 36 38 39 40 39 38 38 38 39 40 40 40 40 40 40 40 39 39 37 36 35 32 27 20 12 359 343 325 308 295 285 277 272 267 264 262 261 259 259 259 259 259 259 259 259 259 259 259 258 258 256 254 253 252 253 254 253 252 251 251 251 251 251 250 249 250 250 250 250 250 252
30 29 28 27 28 29 30 31 31 32 30 30 31 31 32 33 34 36 37 37 36 34 34 34 35 35 35 35 35 35 34 34 33 32 31 29 27 25 22 18 13 6 356 344 332 320 309 299 290 283 276 271 267 264 262 260 259 258 258 258 258 258 258 257 257 257 256 254 251 250 251 251 251 250 249 250 250 250 251 251 251 253 253 253 253 253
30 28 26 25 24 24 26 27 28 29 28 28 28 28 28 29 30 31 33 34 34 32 31 30 30 30 30 30 30 30 30 29 29 28 26 25 24 22 20 17 15 11 6 359 351 341 331 322 313 305 296 289 281 275 271 267 264 262 260 258 257 256 256 256 256 255 255 255 254 251 249 247 247 247 247 247 247 249 251 252 251 252 254 255 255 255
29 28 26 24 23 22 22 23 24 24 25 25 25 25 25 25 26 27 28 29 29 29 28 27 26 26 26 26 26 26 26 25 25 24 23 22 21 20 18 16 14 11 8 4 359 353 345 336 328 320 312 304 296 289 283 277 273 269 265 263 260 258 257 256 255 254 253 253 253 253 250 247 244 243 244 245 245 246 249 251 252 252 253 254 255 256
25 25 25 24 23 22 21 20 21 21 22 23 23 22 21 21 22 22 23 23 24 25 25 24 23 22 22 22 22 23 23 23 22 21 21 20 19 18 16 14 12 10 8 6 3 359 354 348 340 332 324 316 308 301 294 288 282 276 271 268 265 263 260 258 256 254 253 251 251 252 251 249 246 243 242 243 243 244 245 248 251 253 253 254 254 254
21 21 21 21 20 20 20 19 18 18 18 20 21 20 19 19 19 19 19 19 19 20 20 19 19 18 18 18 18 19 19 19 19 19 18 18 17 16 14 12 11 9 7 6 4 2 359 355 350 343 336 328 319 311 303 296 291 286 280 275 271 267 264 262 260 257 254 252 250 250 250 250 249 246 243 241 241 242 242 245 250 254 253 253 252 252
18 17 17 16 17 17 17 17 16 15 16 17 17 18 17 16 16 16 16 16 16 16 16 16 15 14 14 14 14 15 15 16 16 16 16 15 15 14 13 12 10 8 7 5 3 2 0 358 355 351 346 339 331 322 313 305 298 292 288 283 278 274 269 266 264 262 259 255 252 249 248 249 250 248 246 243 242 242 242 244 249 252 252 251 250 249
13 14 14 13 13 13 13 13 12 13 13 14 14 14 15 15 14 14 13 13 13 13 13 13 12 11 11 11 11 11 12 12 13 13 13 13 13 13 12 11 10 8 6 5 3 2 0 359 357 355 352 347 340 333 324 315 307 300 294 289 284 280 276 271 268 265 263 260 256 253 249 248 248 249 249 247 245 244 244 245 247 248 249 248 247 247
8 9 10 10 10 9 9 9 9 9 10 10 11 11 12 13 12 12 11 11 10 9 10 10 10 9 8 8 8 8 9 9 10 10 11 11 11 11 11 10 9 7 6 4 3 2 1 360 358 357 355 352 347 342 334 325 317 309 303 297 292 287 282 277 273 269 266 263 261 258 254 250 248 248 248 249 249 248 247 246 247 247 246 245 244 245
3 3 4 6 7 6 5 5 5 5 6 7 7 8 9 10 10 9 9 8 7 6 6 7 7 7 7 6 6 6 6 7 7 8 8 9 9 9 9 8 8 7 6 4 3 2 1 0 359 358 357 354 351 347 341 334 326 317 310 304 299 294 289 283 279 274 270 266 263 261 258 255 252 249 247 248 248 249 249 248 247 247 245 243 243 243
358 358 359 1 2 2 1 1 1 1 2 3 4 5 6 7 7 6 6 5 4 3 3 3 4 4 4 4 4 4 4 5 5 6 6 6 7 7 7 7 7 7 6 4 2 1 1 0 360 359 357 356 354 351 347 342 335 327 319 312 307 301 296 291 285 280 275 270 266 263 260 258 255 253 250 248 247 248 248 249 248 248 247 244 243 243
354 354 354 355 357 358 358 357 357 357 358 359 0 1 3 4 5 4 3 2 2 0 360 360 1 1 1 1 2 2 3 3 3 3 4 4 4 5 5 5 6 6 5 4 2 1 0 360 360 359 358 357 355 353 351 348 343 337 329 322 316 310 304 299 292 286 280 275 270 265 261 258 256 255 252 250 248 247 247 248 248 248 248 247 245 244
350 351 351 351 352 353 354 353 353 354 354 354 355 357 358 360 1 1 1 0 360 358 357 357 358 359 359 359 359 360 0 0 0 1 1 1 2 3 4 4 4 4 4 4 3 1 0 360 360 360 359 358 356 355 353 351 348 344 339 333 327 321 315 309 302 295 288 280 274 268 264 260 257 255 253 252 250 249 248 247 247 247 247 248 247 246
347 348 349 348 348 348 349 350 350 350 350 350 351 353 354 355 356 357 358 357 357 357 355 355 355 356 356 356 356 357 358 358 358 358 359 359 360 1 2 2 2 3 3 3 3 2 1 360 359 359 359 359 358 356 354 353 351 349 345 340 335 331 326 320 314 306 298 290 281 274 267 262 258 255 253 251 250 249 248 248 248 248 247 247 247 247
344 345 346 347 345 345 345 346 346 347 347 347 348 349 350 350 351 353 353 354 354 355 354 353 354 354 354 353 353 354 355 355 356 356 357 358 358 359 360 0 0 0 1 3 3 2 2 0 359 359 359 359 359 357 355 354 353 351 349 346 342 338 335 331 325 318 310 301 292 283 274 267 261 256 253 251 250 249 248 248 248 249 249 248 248 248
341 341 343 344 344 342 342 343 344 345 345 344 345 345 346 346 347 349 350 351 352 352 352 353 352 351 351 350 350 350 352 353 354 355 355 356 357 357 357 358 359 359 359 1 2 2 2 1 360 359 359 359 360 359 357 355 354 353 352 350 347 344 341 338 335 330 323 314 304 294 284 274 266 260 255 252 250 249 248 247 247 248 249 249 249 249
338 339 339 340 341 340 339 340 341 343 343 343 342 342 343 343 344 345 347 348 349 349 350 350 350 348 348 348 348 348 349 350 352 353 354 355 355 355 355 356 357 357 358 359 360 1 1 1 360 359 358 359 359 359 358 356 355 354 354 352 350 347 344 342 340 337 333 325 316 306 295 284 275 267 260 255 251 249 248 247 247 247 247 248 249 250
334 335 336 336 337 337 337 337 338 340 342 341 340 340 341 341 342 343 344 345 346 346 347 347 347 346 346 346 346 346 347 348 350 351 352 352 353 353 353 354 356 356 357 357 358 359 360 360 360 358 358 358 358 358 359 357 356 355 354 353 352 350 348 346 344 342 339 334 327 318 308 296 284 274 266 260 255 251 248 247 247 246 247 248 248 249
331 331 332 332 333 334 334 334 335 337 339 339 338 337 338 339 338 339 340 342 343 343 343 344 344 344 344 344 344 344 345 346 347 348 349 350 351 351 352 353 354 355 356 356 356 357 358 359 359 359 358 357 357 357 358 358 357 355 354 354 353 352 350 348 346 344 342 339 334 328 319 308 296 284 273 266 260 254 250 248 247 246 246 247 248 249
327 328 328 329 329 330 331 332 332 333 335 336 335 334 334 335 334 335 337 338 339 340 341 341 342 343 343 342 342 342 343 343 344 345 347 348 349 350 350 351 353 354 354 355 355 355 356 357 358 358 357 356 356 357 357 358 357 356 355 355 355 353 351 349 347 346 344 342 338 333 326 318 307 296 283 272 265 259 253 249 248 247 246 247 247 248
323 325 325 325 326 327 328 329 329 330 331 332 331 331 330 331 331 332 334 336 336 338 339 340 340 341 341 341 341 341 341 341 341 343 344 346 347 348 349 350 351 352 353 354 354 355 355 356 357 357 357 356 356 356 357 357 357 356 355 354 354 354 352 349 347 346 345 344 341 337 331 324 315 306 294 282 271 264 258 252 249 247 246 246 246 247
322 323 323 324 324 324 325 326 327 328 328 328 329 329 328 329 330 331 333 334 335 336 338 338 338 339 339 339 339 339 339 339 339 340 342 344 345 347 348 348 349 351 352 353 353 354 354 355 355 356 356 356 355 355 356 357 357 356 355 354 353 353 352 350 348 346 345 344 343 340 335 329 321 313 303 292 280 269 262 256 251 248 246 245 245 246
320 321 322 322 322 322 323 324 325 326 326 327 328 329 329 329 330 331 332 333 334 334 335 336 336 336 336 336 337 337 337 337 337 338 340 342 343 345 347 347 348 349 351 351 352 353 353 354 354 355 355 355 355 355 356 356 356 356 355 353 352 352 352 351 349 347 345 343 343 342 339 333 326 318 309 300 289 277 267 260 254 250 247 245 245 245
319 320 321 321 320 320 321 322 323 324 325 325 326 327 328 328 329 329 329 330 331 332 332 333 333 333 334 334 334 334 335 335 335 337 338 340 342 344 346 346 347 348 350 350 351 352 352 352 353 353 354 355 354 354 355 355 355 355 354 353 352 351 351 351 350 347 345 343 342 341 340 337 331 323 314 305 296 286 275 265 258 253 249 246 245 245
319 319 320 319 318 319 320 321 322 322 322 322 323 325 326 326 325 326 326 327 328 328 329 330 330 330 331 332 332 332 333 333 334 336 337 339 341 343 345 346 346 348 349 350 350 350 351 351 352 352 353 353 353 353 354 354 354 353 353 352 351 350 350 350 349 347 345 342 341 340 340 339 335 328 319 310 301 293 283 273 264 257 253 248 246 245
317 318 318 317 316 318 320 322 322 320 319 318 319 321 322 322 321 321 321 322 323 325 326 326 327 328 329 329 330 330 331 332 333 335 337 339 341 343 344 345 346 347 348 348 349 349 350 350 350 351 351 352 352 352 353 353 353 352 351 351 350 349 349 349 349 347 345 342 341 340 339 339 337 332 324 315 306 297 289 281 271 262 256 251 247 246
315 315 315 314 314 316 319 320 319 317 314 314 315 317 318 318 317 317 317 318 320 321 323 324 324 326 327 327 328 329 330 331 333 335 337 339 340 342 343 344 345 346 347 347 347 348 348 348 349 350 350 351 351 351 352 352 351 351 350 350 349 348 348 347 347 347 345 343 341 340 339 338 337 334 328 320 310 301 293 286 278 269 261 255 250 247
312 312 311 312 313 314 316 317 316 313 311 312 314 315 316 316 316 315 315 316 318 319 320 322 323 324 325 327 327 328 330 332 333 335 337 339 340 341 342 343 344 345 345 346 346 346 347 347 348 348 349 349 349 350 350 351 350 349 349 348 348 348 347 346 346 346 345 343 341 339 339 338 337 335 331 324 315 306 297 289 282 275 267 259 253 249
310 310 311 312 313 314 315 316 315 313 312 313 314 315 316 317 316 315 315 316 318 319 320 322 323 324 326 327 327 328 330 332 334 335 337 338 340 340 341 342 343 344 344 344 345 345 346 346 347 347 348 348 348 348 349 349 349 348 348 347 347 347 346 345 345 344 344 342 340 339 338 338 337 335 332 327 319 310 301 293 285 278 271 264 258 253
309 310 311 313 314 315 317 317 316 315 315 315 316 316 317 318 317 316 317 318 319 320 322 323 324 325 326 327 328 329 331 332 334 336 337 338 338 339 340 341 342 343 343 343 344 344 345 345 346 346 347 347 347 347 347 347 347 347 347 346 346 346 345 344 343 343 342 341 339 338 337 337 337 335 332 328 322 313 304 296 288 281 275 268 262 257
309 311 313 315 316 318 319 318 317 317 317 317 317 317 318 319 319 319 320 320 320 321 323 324 325 326 327 328 329 330 331 333 335 336 337 337 337 338 339 340 341 342 342 343 343 343 344 344 345 345 346 346 345 345 346 346 346 346 345 345 344 344 344 343 342 342 341 340 338 337 336 336 336 335 333 329 324 316 308 299 292 285 278 272 266 260
310 313 315 317 318 319 319 319 318 318 319 319 318 319 320 321 320 320 321 322 322 322 324 325 326 327 328 329 330 331 332 333 334 335 335 335 336 337 339 340 341 341 342 342 342 342 342 343 344 344 345 344 344 344 344 345 345 344 344 343 343 343 343 342 341 340 340 338 337 336 335 335 335 335 333 330 325 318 310 302 295 288 281 275 270 264
312 315 317 317 318 319 319 319 318 319 319 319 320 321 323 323 322 322 323 324 324 324 325 326 327 328 329 329 330 330 331 333 333 334 334 335 336 337 339 339 340 340 341 341 341 341 341 341 342 343 343 343 343 343 343 343 343 343 342 341 341 342 342 341 340 339 338 337 336 335 334 334 334 334 333 330 326 320 312 305 297 290 284 278 273 268
313 316 317 318 318 319 320 320 319 320 320 321 323 324 325 325 325 326 326 326 326 325 326 327 327 328 328 328 329 330 331 332 333 333 334 335 336 337 338 339 339 339 339 339 339 339 340 340 341 342 342 342 342 342 342 342 342 341 340 340 340 340 340 340 339 338 337 336 335 334 333 333 333 333 332 330 326 321 314 306 299 293 287 282 276 270
Height
10622 10621 10620 10619 10618 10617 10616 10615 10613 10612 10610 10608 10607 10605 10604 10604 10605 10605 10604 10605 10606 10608 10610 10611 10614 10617 10620 10622 10624 10627 10630 10632 10632 10632 10633 10633 10632 10633 10634 10634 10636 10639 10641 10641 10641 10641 10641 10641 10641 10639 10636 10635 10636 10636 10638 10639 10639 10640 10641 10642 10643 10644 10646 10648 10649 10650 10651 10651 10651 10651 10652 10653 10653 10654 10655 10655 10656 10656 10657 10657 10658 10658 10659 10659 10660 10660
10626 10625 10624 10622 10621 10619 10618 10616 10614 10611 10608 10606 10604 10602 10600 10599 10600 10600 10600 10601 10602 10604 10606 10608 10611 10614 10617 10619 10622 10625 10627 10628 10628 10630 10632 10632 10632 10634 10636 10638 10638 10638 10638 10637 10636 10637 10638 10638 10637 10635 10633 10633 10635 10635 10636 10637 10637 10638 10638 10638 10639 10640 10641 10642 10643 10644 10645 10646 10646 10646 10647 10648 10648 10649 10650 10650 10651 10651 10652 10652 10653 10654 10655 10656 10656 10657
10628 10627 10626 10625 10623 10622 10620 10618 10615 10612 10609 10604 10601 10599 10597 10596 10595 10596 10597 10597 10598 10599 10602 10605 10609 10612 10614 10616 10619 10622 10623 10624 10624 10627 10631 10634 10634 10633 10635 10637 10637 10635 10634 10632 10632 10634 10635 10635 10633 10631 10631 10632 10633 10633 10633 10633 10633 10633 10633 10633 10635 10636 10637 10638 10639 10640 10641 10641 10642 10642 10643 10643 10644 10644 10645 10646 10646 10646 10647 10647 10648 10649 10650 10651 10652 10653
10631 10630 10630 10629 10627 10625 10623 10621 10618 10615 10611 10606 10601 10597 10594 10592 10591 10591 10592 10593 10594 10595 10598 10602 10606 10609 10611 10613 10616 10618 10619 10621 10623 10626 10630 10633 10631 10629 10631 10632 10631 10632 10631 10629 10629 10631 10633 10632 10630 10630 10631 10633 10632 10631 10629 10628 10628 10628 10629 10630 10631 10632 10633 10634 10635 10636 10637 10638 10638 10639 10639 10639 10640 10640 10641 10642 10642 10642 10643 10643 10644 10644 10645 10646 10647 10648
10637 10635 10634 10632 10631 10628 10625 10622 10618 10615 10611 10607 10602 10597 10592 10589 10587 10587 10588 10589 10591 10593 10595 10599 10603 10606 10608 10610 10613 10615 10617 10619 10623 10626 10629 10628 10625 10625 10627 10627 10626 10627 10627 10624 10625 10628 10629 10628 10628 10630 10631 10630 10629 10628 10627 10625 10624 10625 10627 10627 10628 10629 10631 10632 10632 10633 10633 10634 10634 10635 10635 10636 10636 10637 10637 10637 10638 10638 10639 10639 10640 10640 10641 10641 10642 10642
10641 10639 10637 10636 10634 10631 10627 10623 10619 10615 10612 10608 10603 10597 10592 10588 10584 10583 10583 10585 10588 10591 10593 10597 10600 10603 10606 10608 10610 10612 10614 10617 10619 10622 10623 10622 10621 10623 10625 10625 10624 10624 10623 10622 10623 10625 10626 10625 10627 10628 10628 10627 10626 10625 10624 10623 10622 10623 10624 10625 10626 10626 10628 10629 10629 10629 10629 10629 10629 10629 10630 10631 10632 10633 10634 10634 10634 10635 10635 10635 10636 10637 10638 10638 10638 10638
10644 10642 10640 10639 10636 10633 10629 10625 10621 10617 10613 10609 10605 10599 10594 10589 10584 10581 10581 10581 10584 10588 10592 10595 10598 10601 10604 10607 10609 10611 10613 10614 10616 10616 10617 10617 10617 10620 10622 10622 10622 10621 10621 10621 10621 10622 10623 10623 10624 10624 10624 10623 10623 10622 10621 10620 10620 10621 10621 10622 10622 10623 10624 10625 10625 10624 10624 10624 10624 10624 10624 10625 10626 10628 10629 10629 10630 10630 10631 10632 10633 10634 10635 10635 10635 10635
10646 10644 10643 10641 10638 10635 10632 10627 10623 10619 10616 10612 10608 10603 10598 10593 10588 10584 10581 10581 10582 10586 10591 10594 10598 10601 10604 10607 10609 10611 10612 10613 10614 10614 10614 10614 10615 10616 10618 10617 10617 10618 10618 10618 10618 10619 10620 10620 10620 10620 10620 10619 10620 10620 10619 10618 10618 10619 10619 10618 10620 10621 10622 10622 10621 10620 10619 10619 10619 10619 10619 10619 10620 10621 10623 10623 10624 10625 10627 10628 10628 10629 10630 10630 10631 10630
10650 10647 10645 10642 10639 10636 10633 10630 10627 10623 10620 10616 10612 10607 10604 10599 10594 10589 10585 10584 10584 10587 10590 10594 10598 10602 10604 10607 10609 10611 10612 10613 10613 10613 10613 10613 10613 10614 10615 10615 10615 10615 10615 10616 10616 10617 10617 10616 10616 10616 10616 10615 10616 10616 10616 10615 10616 10617 10616 10616 10618 10619 10620 10619 10617 10615 10614 10614 10614 10614 10614 10613 10613 10615 10616 10617 10618 10620 10621 10622 10623 10623 10623 10624 10624 10624
10652 10649 10646 10643 10641 10638 10637 10635 10632 10628 10624 10620 10616 10612 10610 10606 10602 10597 10593 10590 10590 10591 10594 10597 10600 10603 10606 10608 10610 10611 10611 10612 10612 10613 10613 10613 10613 10613 10613 10613 10613 10612 10612 10613 10613 10613 10613 10613 10613 10612 10612 10612 10612 10612 10612 10611 10612 10612 10613 10615 10616 10616 10616 10614 10610 10610 10609 10608 10608 10607 10607 10606 10607 10610 10612 10612 10613 10614 10616 10617 10617 10617 10617 10617 10617 10618
10653 10651 10648 10646 10644 10642 10641 10639 10636 10632 10628 10624 10621 10618 10614 10612 10609 10605 10601 10598 10597 10598 10599 10601 10603 10606 10608 10610 10612 10613 10613 10612 10613 10613 10613 10613 10613 10613 10612 10612 10611 10610 10610 10610 10610 10610 10610 10610 10610 10609 10608 10607 10607 10607 10607 10606 10606 10607 10609 10611 10610 10607 10607 10605 10602 10603 10603 10601 10600 10600 10600 10600 10602 10604 10606 10606 10606 10607 10609 10610 10610 10611 10611 10611 10611 10613
10656 10653 10651 10650 10648 10646 10645 10643 10640 10636 10632 10629 10626 10623 10619 10617 10614 10611 10608 10605 10604 10605 10606 10607 10608 10609 10611 10612 10614 10615 10615 10616 10616 10616 10616 10616 10616 10614 10613 10612 10610 10609 10608 10607 10607 10607 10607 10607 10607 10605 10603 10602 10601 10601 10602 10601 10601 10601 10603 10606 10604 10599 10598 10598 10597 10597 10596 10595 10594 10594 10594 10594 10596 10598 10598 10598 10599 10600 10601 10602 10603 10605 10605 10606 10607 10608
10659 10657 10655 10654 10652 10650 10648 10646 10644 10641 10636 10633 10631 10628 10625 10623 10620 10616 10614 10611 10610 10610 10610 10611 10612 10613 10614 10614 10615 10616 10617 10617 10618 10618 10618 10617 10616 10614 10613 10611 10609 10607 10605 10604 10604 10603 10603 10603 10603 10602 10600 10598 10596 10596 10597 10597 10597 10597 10597 10599 10599 10596 10593 10593 10593 10592 10591 10590 10590 10589 10588 10587 10588 10589 10590 10591 10592 10592 10593 10595 10596 10598 10599 10600 10602 10604
10662 10660 10658 10657 10655 10653 10651 10648 10646 10643 10639 10637 10635 10632 10630 10628 10625 10621 10619 10617 10615 10614 10614 10614 10615 10615 10616 10617 10617 10617 10617 10618 10618 10618 10617 10616 10615 10613 10612 10610 10607 10605 10603 10601 10600 10599 10599 10599 10598 10597 10596 10594 10592 10590 10590 10591 10592 10592 10591 10591 10592 10591 10588 10587 10587 10588 10587 10585 10584 10583 10581 10580 10580 10580 10582 10584 10584 10585 10586 10587 10589 10590 10591 10593 10595 10597
10665 10663 10661 10660 10658 10655 10652 10650 10647 10644 10641 10639 10637 10634 10632 10631 10628 10625 10623 10622 10621 10620 10619 10619 10619 10619 10619 10619 10618 10618 10618 10618 10618 10617 10616 10615 10614 10613 10611 10609 10607 10604 10602 10600 10598 10596 10595 10594 10593 10591 10590 10588 10587 10585 10583 10582 10583 10583 10583 10582 10582 10582 10581 10580 10580 10581 10581 10580 10578 10576 10573 10574 10574 10574 10575 10577 10577 10577 10578 10580 10581 10582 10583 10585 10586 10588
10668 10666 10664 10662 10659 10656 10654 10651 10649 10645 10643 10641 10639 10636 10634 10633 10631 10628 10626 10625 10625 10624 10623 10623 10622 10622 10621 10620 10620 10619 10619 10618 10617 10617 10616 10614 10613 10612 10610 10608 10605 10603 10600 10597 10594 10592 10590 10588 10586 10584 10582 10580 10579 10577 10575 10574 10573 10574 10574 10572 10571 10571 10571 10571 10570 10571 10572 10572 10572 10570 10567 10568 10569 10568 10569 10569 10569 10570 10571 10572 10573 10573 10574 10576 10577 10579
10671 10669 10666 10663 10661 10658 10656 10653 10651 10647 10645 10644 10641 10638 10636 10635 10633 10631 10629 10628 10627 10627 10626 10625 10624 10623 10622 10621 10621 10620 10619 10618 10617 10616 10614 10613 10611 10610 10608 10605 10603 10600 10598 10595 10591 10588 10585 10582 10579 10577 10574 10573 10571 10569 10567 10566 10565 10565 10564 10563 10561 10559 10559 10559 10559 10560 10562 10562 10562 10562 10560 10560 10562 10562 10561 10560 10562 10563 10564 10564 10565 10565 10565 10567 10569 10571
10673 10671 10668 10665 10663 10660 10658 10655 10652 10649 10648 10646 10643 10640 10639 10637 10635 10633 10632 10631 10630 10629 10628 10627 10625 10624 10623 10622 10621 10620 10619 10617 10616 10614 10613 10611 10609 10606 10604 10601 10599 10596 10593 10590 10587 10584 10581 10577 10574 10572 10569 10567 10564 10562 10560 10558 10557 10556 10555 10554 10551 10549 10547 10546 10547 10548 10549 10551 10552 10552 10552 10552 10553 10553 10552 10552 10554 10555 10556 10557 10558 10558 10558 10559 10562 10563
10675 10672 10670 10667 10665 10663 10660 10657 10654 10652 10650 10648 10645 10643 10641 10639 10637 10635 10634 10633 10632 10630 10629 10628 10627 10625 10624 10623 10621 10620 10618 10616 10614 10612 10610 10607 10605 10603 10600 10598 10595 10592 10589 10586 10583 10580 10576 10572 10569 10566 10563 10560 10557 10555 10553 10551 10549 10548 10546 10545 10543 10541 10538 10536 10536 10535 10536 10538 10540 10543 10543 10543 10544 10545 10545 10545 10546 10547 10548 10549 10551 10552 10552 10552 10554 10556
10677 10675 10672 10669 10667 10664 10662 10659 10657 10655 10653 10650 10647 10645 10643 10641 10639 10637 10635 10634 10633 10632 10630 10628 10627 10626 10624 10622 10620 10618 10616 10614 10612 10609 10607 10604 10602 10600 10597 10595 10592 10589 10586 10583 10580 10576 10572 10568 10564 10560 10556 10553 10550 10547 10544 10542 10541 10539 10538 10536 10535 10533 10530 10528 10527 10526 10526 10526 10527 10530 10533 10535 10536 10536 10536 10537 10538 10538 10539 10540 10543 10545 10545 10546 10548 10550
10679 10677 10675 10672 10669 10666 10664 10661 10658 10656 10654 10651 10648 10646 10644 10642 10640 10638 10636 10634 10633 10632 10630 10629 10627 10625 10623 10621 10619 10616 10614 10612 10610 10607 10605 10603 10600 10598 10595 10592 10590 10587 10585 10582 10578 10574 10570 10565 10560 10555 10551 10547 10543 10540 10537 10534 10532 10530 10528 10527 10526 10524 10522 10520 10519 10518 10517 10517 10517 10518 10521 10524 10526 10528 10528 10528 10529 10530 10530 10532 10534 10537 10538 10539 10540 10544
10680 10679 10677 10674 10672 10669 10666 10664 10661 10658 10656 10653 10650 10648 10645 10642 10640 10638 10636 10634 10633 10631 10630 10628 10626 10624 10622 10620 10618 10615 10613 10611 10609 10607 10604 10601 10599 10596 10594 10592 10589 10586 10583 10579 10575 10571 10567 10562 10557 10552 10547 10542 10538 10533 10530 10526 10524 10521 10519 10518 10516 10515 10513 10511 10510 10508 10508 10509 10509 10509 10509 10511 10514 10517 10519 10519 10520 10522 10523 10524 10525 10528 10530 10532 10533 10536
10682 10680 10678 10676 10674 10671 10668 10666 10663 10661 10658 10655 10652 10650 10647 10644 10641 10638 10636 10634 10632 10630 10628 10626 10624 10622 10620 10618 10616 10614 10612 10610 10608 10605 10603 10601 10598 10596 10593 10590 10587 10583 10578 10574 10571 10567 10563 10559 10554 10549 10544 10539 10534 10529 10524 10520 10516 10513 10511 10509 10508 10506 10505 10503 10500 10499 10499 10499 10500 10501 10500 10500 10501 10505 10508 10510 10512 10513 10515 10516 10517 10518 10521 10523 10525 10527
10683 10680 10678 10676 10674 10672 10669 10667 10664 10662 10659 10656 10654 10651 10649 10646 10643 10640 10637 10634 10632 10630 10627 10625 10623 10621 10619 10617 10615 10613 10611 10609 10607 10605 10603 10601 10598 10595 10591 10587 10583 10579 10575 10571 10567 10563 10559 10555 10550 10545 10540 10535 10530 10525 10520 10515 10511 10507 10504 10501 10499 10498 10497 10495 10493 10490 10490 10489 10490 10491 10491 10491 10491 10492 10495 10499 10502 10504 10505 10507 10508 10510 10512 10514 10516 10518
10684 10681 10679 10676 10674 10672 10670 10667 10665 10663 10660 10658 10655 10653 10651 10648 10645 10642 10639 10636 10633 10631 10629 10626 10624 10622 10620 10618 10616 10613 10611 10609 10607 10604 10602 10600 10596 10593 10589 10585 10581 10577 10573 10569 10565 10560 10555 10551 10546 10541 10536 10531 10526 10521 10516 10511 10506 10502 10498 10495 10492 10490 10488 10487 10485 10482 10481 10480 10480 10480 10481 10481 10481 10482 10483 10486 10489 10492 10495 10497 10499 10501 10503 10505 10508 10510
10684 10682 10680 10677 10675 10672 10670 10668 10666 10664 10661 10659 10657 10655 10652 10650 10647 10644 10641 10638 10635 10633 10631 10628 10626 10623 10621 10618 10616 10614 10611 10609 10606 10603 10600 10597 10594 10591 10587 10584 10580 10576 10572 10567 10562 10557 10552 10548 10543 10538 10533 10528 10522 10517 10512 10507 10501 10496 10492 10489 10486 10483 10481 10478 10476 10475 10473 10472 10471 10471 10471 10471 10472 10473 10474 10475 10477 10479 10482 10485 10488 10491 10494 10496 10498 10500
10684 10682 10680 10678 10676 10673 10671 10669 10667 10665 10663 10660 10657 10655 10652 10650 10647 10645 10642 10640 10637 10634 10632 10630 10627 10625 10622 10619 10616 10614 10611 10608 10604 10601 10598 10594 10591 10588 10585 10582 10579 10575 10570 10565 10560 10555 10550 10545 10540 10535 10530 10525 10519 10514 10508 10503 10497 10492 10487 10483 10479 10476 10473 10470 10468 10467 10465 10463 10462 10461 10461 10461 10462 10463 10464 10465 10466 10468 10470 10473 10476 10479 10483 10486 10489 10491
10684 10682 10680 10678 10676 10674 10672 10669 10667 10665 10663 10661 10658 10655 10653 10650 10648 10645 10643 10640 10637 10635 10632 10630 10628 10625 10622 10619 10616 10613 10610 10607 10603 10600 10597 10594 10591 10588 10585 10581 10577 10573 10568 10563 10558 10553 10548 10542 10537 10532 10527 10522 10516 10511 10505 10499 10493 10488 10482 10477 10473 10469 10466 10463 10460 10458 10456 10455 10453 10453 10452 10452 10452 10453 10455 10456 10457 10458 10460 10462 10465 10467 10471 10475 10479 10482
10685 10683 10680 10678 10676 10674 10672 10670 10667 10665 10662 10660 10659 10656 10653 10651 10648 10646 10643 10640 10637 10635 10632 10629 10626 10624 10621 10618 10615 10612 10609 10606 10603 10600 10597 10594 10591 10588 10584 10579 10575 10571 10567 10562 10557 10551 10546 10540 10535 10529 10523 10518 10512 10507 10501 10495 10489 10483 10478 10472 10468 10463 10459 10455 10452 10450 10448 10446 10444 10443 10443 10443 10443 10443 10445 10447 10448 10449 10451 10452 10455 10457 10460 10464 10468 10471
10684 10682 10680 10677 10675 10673 10671 10669 10667 10664 10662 10660 10658 10656 10653 10651 10648 10646 10644 10641 10638 10635 10632 10629 10626 10623 10620 10617 10615 10612 10609 10606 10603 10600 10597 10594 10591 10587 10582 10577 10573 10569 10565 10560 10555 10549 10543 10537 10531 10526 10520 10514 10509 10503 10497 10491 10485 10479 10473 10468 10462 10458 10453 10448 10444 10441 10439 10437 10435 10434 10433 10433 10434 10434 10436 10437 10438 10440 10442 10443 10445 10448 10450 10453 10457 10460
10683 10681 10679 10677 10674 10672 10670 10668 10666 10664 10661 10659 10657 10655 10652 10650 10648 10645 10643 10641 10639 10636 10633 10629 10626 10623 10619 10617 10614 10611 10608 10606 10603 10600 10596 10593 10589 10584 10580 10576 10571 10567 10563 10558 10552 10546 10540 10534 10528 10522 10517 10511 10505 10499 10493 10487 10481 10475 10470 10464 10458 10453 10447 10442 10438 10434 10430 10428 10426 10425 10424 10424 10424 10425 10426 10428 10429 10431 10433 10434 10436 10438 10440 10443 10447 10450
10681 10680 10678 10676 10674 10671 10669 10667 10665 10663 10660 10658 10656 10654 10651 10649 10647 10645 10643 10640 10638 10635 10632 10628 10624 10621 10618 10616 10613 10611 10608 10605 10602 10599 10595 10591 10587 10582 10578 10574 10570 10565 10560 10555 10550 10544 10538 10531 10525 10519 10513 10507 10501 10495 10489 10483 10477 10471 10465 10459 10454 10448 10443 10437 10432 10428 10424 10421 10418 10417 10415 10415 10415 10415 10416 10418 10420 10421 10423 10425 10427 10428 10431 10433 10436 10439
10680 10678 10676 10674 10673 10670 10668 10667 10665 10662 10659 10657 10654 10652 10650 10648 10646 10644 10642 10639 10636 10633 10630 10627 10623 10620 10617 10615 10612 10609 10606 10603 10600 10596 10593 10589 10585 10581 10577 10573 10568 10563 10558 10552 10547 10541 10535 10528 10522 10516 10510 10504 10498 10492 10485 10479 10473 10468 10461 10455 10449 10444 10439 10434 10428 10423 10419 10415 10412 10410 10408 10407 10406 10406 10407 10409 10410 10412 10414 10416 10418 10419 10421 10423 10426 10429
10678 10677 10675 10673 10671 10669 10667 10665 10663 10661 10658 10655 10653 10651 10649 10646 10644 10642 10640 10637 10634 10631 10628 10626 10623 10620 10617 10613 10610 10607 10604 10601 10597 10594 10590 10586 10583 10579 10575 10571 10566 10560 10555 10549 10544 10538 10532 10527 10521 10514 10508 10501 10495 10490 10483 10476 10469 10463 10458 10452 10447 10441 10435 10430 10425 10419 10415 10410 10407 10404 10402 10400 10398 10398 10399 10400 10401 10403 10405 10407 10408 10410 10412 10414 10416 10419
10676 10675 10673 10672 10670 10668 10666 10663 10661 10659 10656 10654 10651 10649 10647 10644 10642 10640 10638 10635 10632 10630 10627 10624 10622 10619 10615 10612 10608 10605 10602 10598 10595 10591 10588 10584 10581 10577 10573 10568 10563 10558 10552 10547 10541 10536 10531 10526 10519 10513 10506 10499 10493 10487 10480 10473 10465 10459 10454 10449 10443 10437 10431 10425 10420 10415 10411 10406 10402 10399 10396 10394 10392 10391 10391 10391 10393 10394 10396 10397 10399 10401 10403 10405 10407 10410
10672 10671 10670 10669 10668 10666 10664 10662 10659 10656 10654 10652 10649 10647 10644 10642 10640 10638 10636 10633 10631 10628 10625 10622 10620 10617 10613 10609 10606 10603 10599 10596 10592 10589 10586 10582 10578 10574 10570 10566 10561 10556 10550 10545 10540 10535 10529 10523 10517 10510 10503 10496 10489 10483 10476 10470 10463 10457 10451 10445 10439 10433 10427 10422 10416 10411 10407 10402 10398 10395 10391 10388 10386 10385 10384 10384 10384 10385 10387 10388 10390 10392 10394 10396 10398 10401
10671 10669 10667 10665 10664 10663 10661 10659 10657 10654 10652 10650 10647 10644 10642 10640 10638 10635 10633 10631 10628 10626 10623 10620 10617 10614 10611 10607 10604 10600 10597 10594 10590 10587 10584 10580 10576 10572 10568 10563 10558 10553 10548 10543 10538 10532 10526 10520 10513 10507 10500 10494 10486 10479 10473 10467 10461 10454 10447 10441 10435 10430 10424 10419 10414 10409 10404 10399 10394 10391 10388 10384 10381 10379 10378 10378 10377 10377 10379 10381 10382 10384 10386 10388 10390 10392
10671 10668 10665 10662 10659 10658 10656 10655 10654 10651 10649 10648 10645 10643 10640 10638 10635 10633 10630 10627 10625 10622 10620 10617 10613 10610 10607 10604 10601 10597 10594 10591 10588 10585 10581 10577 10573 10569 10565 10560 10555 10551 10546 10540 10535 10529 10523 10517 10511 10504 10498 10491 10484 10477 10470 10464 10457 10450 10443 10437 10432 10427 10422 10417 10412 10407 10401 10396 10391 10387 10383 10380 10377 10374 10372 10371 10371 10370 10371 10373 10374 10376 10378 10380 10381 10384
10668 10666 10663 10660 10657 10654 10652 10650 10649 10647 10645 10644 10642 10640 10638 10635 10632 10629 10626 10624 10621 10618 10615 10613 10610 10607 10604 10601 10598 10595 10591 10588 10585 10582 10579 10575 10571 10566 10562 10557 10552 10547 10542 10537 10531 10525 10520 10513 10507 10501 10495 10488 10481 10474 10467 10460 10453 10447 10440 10435 10429 10424 10419 10413 10408 10402 10398 10393 10389 10384 10379 10376 10373 10370 10367 10365 10364 10364 10364 10364 10366 10367 10369 10371 10373 10375
10665 10663 10661 10658 10655 10651 10648 10646 10645 10643 10641 10639 10638 10636 10634 10631 10629 10625 10622 10620 10617 10614 10611 10609 10606 10603 10601 10598 10595 10592 10589 10586 10583 10580 10576 10572 10568 10564 10559 10554 10549 10544 10539 10534 10528 10522 10516 10510 10503 10497 10491 10485 10478 10470 10463 10457 10451 10445 10439 10432 10426 10420 10415 10409 10403 10398 10394 10390 10386 10381 10377 10372 10368 10365 10362 10360 10358 10358 10357 10357 10357 10359 10360 10362 10364 10367
10661 10659 10657 10654 10652 10649 10646 10643 10641 10640 10638 10636 10634 10632 10630 10628 10625 10622 10620 10617 10615 10612 10609 10606 10604 10601 10598 10595 10592 10590 10587 10584 10580 10577 10573 10569 10565 10560 10556 10551 10546 10541 10536 10530 10524 10518 10512 10506 10500 10494 10488 10481 10475 10468 10461 10455 10449 10443 10437 10430 10424 10418 10412 10406 10401 10396 10391 10387 10382 10378 10374 10369 10364 10360 10357 10355 10352 10351 10351 10350 10350 10351 10352 10354 10355 10357
10657 10655 10653 10650 10648 10646 10644 10642 10639 10636 10634 10632 10630 10628 10626 10624 10622 10619 10616 10614 10612 10610 10607 10604 10601 10598 10595 10592 10589 10586 10583 10580 10577 10574 10570 10565 10561 10557 10552 10547 10542 10537 10531 10526 10520 10514 10509 10503 10497 10491 10485 10479 10473 10466 10459 10452 10446 10440 10434 10429 10422 10416 10410 10405 10399 10394 10389 10383 10379 10374 10370 10366 10361 10356 10352 10350 10347 10345 10344 10344 10344 10344 10345 10346 10347 10349
10654 10651 10648 10646 10643 10642 10641 10639 10636 10632 10629 10627 10625 10624 10623 10621 10618 10616 10613 10611 10609 10607 10604 10602 10599 10596 10592 10589 10586 10583 10580 10577 10574 10570 10566 10561 10556 10552 10547 10543 10538 10532 10527 10522 10517 10511 10505 10500 10494 10488 10482 10476 10469 10463 10456 10450 10443 10437 10431 10426 10419 10412 10407 10401 10396 10391 10385 10380 10375 10370 10365 10361 10357 10353 10348 10344 10342 10340 10338 10337 10337 10337 10337 10338 10339 10340
10652 10649 10646 10643 10640 10638 10637 10636 10634 10630 10625 10623 10621 10620 10619 10617 10615 10612 10609 10607 10605 10603 10601 10598 10596 10593 10590 10586 10583 10580 10577 10573 10570 10566 10561 10557 10552 10547 10543 10538 10533 10528 10523 10518 10513 10508 10502 10496 10490 10484 10478 10472 10466 10460 10453 10447 10441 10434 10428 10422 10415 10408 10402 10397 10392 10386 10381 10376 10370 10366 10361 10356 10352 10348 10344 10340 10336 10334 10332 10331 10330 10330 10330 10330 10331 10332
10650 10647 10644 10641 10638 10636 10635 10633 10631 10627 10622 10619 10618 10616 10614 10613 10611 10608 10606 10604 10602 10599 10597 10595 10592 10589 10586 10583 10579 10576 10573 10569 10565 10561 10557 10552 10548 10543 10538 10534 10529 10524 10520 10515 10510 10504 10499 10493 10486 10480 10474 10468 10462 10456 10450 10443 10437 10431 10424 10417 10411 10404 10398 10392 10386 10381 10376 10371 10366 10361 10356 10352 10347 10343 10339 10335 10331 10328 10326 10324 10323 10323 10322 10322 10323 10324
10646 10643 10641 10638 10635 10633 10631 10629 10627 10624 10620 10617 10615 10612 10610 10609 10607 10604 10602 10599 10597 10595 10593 10590 10588 10585 10582 10578 10575 10571 10568 10564 10561 10556 10552 10547 10543 10539 10535 10531 10526 10522 10517 10512 10506 10501 10495 10489 10482 10476 10470 10463 10458 10452 10445 10439 10433 10427 10419 10412 10406 10400 10394 10387 10382 10377 10372 10367 10362 10357 10352 10348 10343 10339 10334 10330 10327 10323 10320 10318 10317 10316 10315 10315 10315 10316
10642 10640 10637 10635 10632 10629 10627 10624 10622 10620 10617 10615 10612 10609 10607 10605 10602 10600 10597 10595 10592 10590 10588 10586 10583 10580 10577 10574 10571 10567 10563 10560 10556 10552 10547 10543 10539 10535 10531 10527 10523 10518 10513 10508 10502 10496 10490 10484 10478 10471 10465 10458 10452 10446 10440 10434 10428 10422 10415 10408 10402 10396 10391 10384 10378 10373 10367 10362 10358 10353 10348 10343 10338 10334 10329 10325 10322 10318 10315 10312 10310 10309 10308 10308 10308 10308
10638 10636 10634 10631 10628 10626 10623 10620 10617 10615 10613 10611 10608 10606 10603 10601 10598 10596 10593 10591 10588 10585 10583 10581 10578 10576 10573 10570 10566 10563 10559 10555 10551 10547 10543 10539 10536 10532 10528 10523 10518 10513 10507 10501 10495 10490 10484 10478 10472 10466 10459 10453 10447 10441 10435 10429 10423 10417 10411 10405 10399 10393 10387 10381 10374 10368 10363 10358 10353 10348 10343 10338 10334 10329 10324 10320 10316 10313 10309 10306 10304 10302 10301 10300 10300 10301
10634 10632 10630 10627 10625 10623 10620 10617 10613 10611 10609 10607 10605 10602 10600 10598 10595 10592 10590 10587 10585 10582 10579 10577 10574 10571 10568 10565 10562 10559 10555 10551 10547 10543 10540 10536 10532 10528 10523 10518 10512 10507 10501 10495 10490 10484 10478 10473 10467 10461 10455 10448 10442 10436 10429 10423 10417 10411 10406 10401 10395 10389 10382 10376 10370 10364 10358 10353 10348 10343 10338 10333 10328 10324 10319 10314 10310 10307 10304 10301 10298 10295 10294 10293 10293 10293
10631 10630 10627 10624 10622 10619 10617 10614 10610 10608 10605 10603 10601 10599 10597 10595 10592 10590 10587 10584 10582 10579 10576 10573 10570 10567 10565 10562 10559 10555 10552 10548 10545 10541 10537 10533 10528 10523 10517 10512 10506 10501 10496 10490 10485 10479 10474 10468 10462 10456 10450 10444 10437 10430 10424 10418 10412 10406 10400 10395 10390 10384 10377 10371 10365 10358 10353 10347 10342 10337 10332 10327 10322 10318 10313 10309 10304 10301 10298 10296 10292 10289 10287 10287 10286 10286
10628 10627 10625 10622 10619 10616 10613 10610 10607 10605 10602 10600 10598 10596 10594 10591 10589 10587 10584 10581 10579 10576 10573 10570 10568 10565 10562 10559 10556 10553 10550 10546 10542 10538 10534 10529 10524 10518 10513 10507 10502 10496 10491 10486 10480 10475 10469 10463 10457 10451 10445 10439 10432 10425 10418 10412 10407 10401 10395 10389 10383 10378 10372 10366 10360 10353 10347 10341 10336 10331 10326 10321 10316 10311 10306 10302 10298 10294 10291 10289 10287 10284 10281 10279 10279 10279